Location: Chuathbaluk
(61.5726°N, 159.2454°W)
Time: 23:20:22
(UTC+00:00)

Transit 4A - Pass Details

Date: 26 November 2020
Orbit: 864 x 980 km, 66.8° (Epoch: 20 January)

Event Time Altitude Azimuth Distance (km) Brightness Sun altitude
Rises 21:17:28 0° 240° (WSW) 3,661 11.2 6.2°
Reaches altitude 10° 21:20:01 10° 242° (WSW) 2,725 10.6 6.3°
Maximum altitude 21:26:26 79° 329° (NNW) 1,005 8.2 6.5°
Drops below altitude 10° 21:32:54 10° 57° (ENE) 2,739 10.2 6.6°
Sets 21:35:28 0° 59° (ENE) 3,681 10.8 6.7°
